Location: Eymir
(36.7333°N, 29.7833°E)
Time: 17:50:17
(UTC+00:00)

Sich 1 - Pass Details

Date: 14 January 2026
Orbit: 572 x 598 km, 82.5° (Epoch: 17 February)

Event Time Altitude Azimuth Distance (km) Brightness Sun altitude
Rises 02:46:11 0° 166° (SSE) 2,806 6.7 -28.9°
Reaches altitude 10° 02:48:30 10° 158° (SSE) 1,906 5.9 -28.5°
Maximum altitude 02:52:21 36° 92° (E) 938 4.4 -27.7°
Drops below altitude 10° 02:56:12 10° 25° (NNE) 1,904 5.7 -26.9°
Sets 02:58:30 0° 17° (NNE) 2,803 6.5 -26.5°
